Location: Unnamed
(48.2382°N, 16.3826°E)
Time: 10:21:19
(UTC+02:00)

Falcon 9 debris - Pass Details

Date: 20 August 2020
Orbit: 426 x 434 km, 53.0° (Epoch: 23 September)

Event Time Altitude Azimuth Distance (km) Brightness Sun altitude
Rises 21:17:23 0° 293° (WNW) 2,411 ? -12.5°
Reaches altitude 10° 21:19:33 10° 299° (WNW) 1,543 ? -12.8°
Maximum altitude 21:22:54 45° 14° (NNE) 601 ? -13.3°
Enters shadow 21:25:16 17° 83° (E) 1,172 ? -13.6°
